MRK683 KDFW-KMSY

Flight info

Callsign MRK683
Flight time 0h 56m
Altitude 39000
Route DALL4 SOLDO ZALEA SWEUP LSU AWDAD1
Aircraft L101/H-SDFHIRWXY/S

Departure

Time 2026-05-08 02:41
Airport Dallas Fort Worth International Airport (KDFW)

Arrival

Time 2026-05-08 03:37
Airport Louis Armstrong New Orleans International Airport (KMSY)
Time Latitude Longitude Altitude Speed Heading
2026-05-08 02:18 32.91089 -97.03556 587 ft 0 kts
2026-05-08 02:38 32.91098 -97.03556 588 ft 5 kts
2026-05-08 02:38 32.91138 -97.03525 587 ft 10 kts 62°
2026-05-08 02:38 32.91141 -97.03426 587 ft 14 kts 92°
2026-05-08 02:38 32.91208 -97.03359 587 ft 16 kts
2026-05-08 02:39 32.91339 -97.03354 587 ft 21 kts
2026-05-08 02:39 32.91500 -97.03353 583 ft 18 kts
2026-05-08 02:39 32.91560 -97.03268 586 ft 14 kts 82°
2026-05-08 02:39 32.91560 -97.03175 584 ft 12 kts 90°
2026-05-08 02:40 32.91559 -97.03056 586 ft 15 kts 90°
2026-05-08 02:40 32.91516 -97.02993 586 ft 10 kts 166°
2026-05-08 02:40 32.91490 -97.02991 583 ft 0 kts 178°
2026-05-08 02:41 32.91339 -97.02989 583 ft 70 kts 180°
2026-05-08 02:41 32.90516 -97.02996 598 ft 161 kts 180°
2026-05-08 02:41 32.89306 -97.03039 1456 ft 179 kts 181°
2026-05-08 02:41 32.88063 -97.02893 2711 ft 183 kts 165°
2026-05-08 02:42 32.86845 -97.02295 3786 ft 195 kts 157°
2026-05-08 02:42 32.85493 -97.01743 4701 ft 215 kts 163°
2026-05-08 02:42 32.83957 -97.01202 5234 ft 243 kts 165°
2026-05-08 02:42 32.82333 -97.00570 5858 ft 245 kts 161°
2026-05-08 02:43 32.80849 -96.99592 6593 ft 246 kts 146°
2026-05-08 02:43 32.79687 -96.98066 7122 ft 256 kts 127°
2026-05-08 02:43 32.79013 -96.96041 7470 ft 273 kts 104°
2026-05-08 02:43 32.78890 -96.93739 7856 ft 286 kts 89°
2026-05-08 02:44 32.79119 -96.91338 8094 ft 297 kts 84°
2026-05-08 02:44 32.79398 -96.88907 8646 ft 295 kts 83°
2026-05-08 02:44 32.79711 -96.86533 9461 ft 286 kts 82°
2026-05-08 02:44 32.80002 -96.84189 10034 ft 295 kts 82°
2026-05-08 02:45 32.80333 -96.81683 10209 ft 320 kts 82°
2026-05-08 02:45 32.80685 -96.78955 10284 ft 346 kts 82°
2026-05-08 02:45 32.81048 -96.76049 10375 ft 362 kts 82°
2026-05-08 02:45 32.81417 -96.73019 10506 ft 386 kts 82°
2026-05-08 02:46 32.81805 -96.69771 10646 ft 415 kts 82°
2026-05-08 02:46 32.82221 -96.66262 11309 ft 428 kts 82°
2026-05-08 02:46 32.82626 -96.62836 12611 ft 418 kts 82°
2026-05-08 02:46 32.83028 -96.59429 13940 ft 416 kts 81°
2026-05-08 02:47 32.83437 -96.55972 14558 ft 431 kts 82°
2026-05-08 02:47 32.83865 -96.52346 14910 ft 453 kts 82°
2026-05-08 02:47 32.84302 -96.48613 15813 ft 456 kts 82°
2026-05-08 02:47 32.84732 -96.44911 17135 ft 450 kts 82°
2026-05-08 02:48 32.85159 -96.41198 17993 ft 459 kts 83°
2026-05-08 02:48 32.85596 -96.37341 18312 ft 480 kts 83°
2026-05-08 02:48 32.86036 -96.33343 18881 ft 490 kts 84°
2026-05-08 02:48 32.86154 -96.29312 19957 ft 484 kts 97°
2026-05-08 02:49 32.85542 -96.25384 20975 ft 483 kts 107°
2026-05-08 02:49 32.84645 -96.21489 21498 ft 499 kts 107°
2026-05-08 02:49 32.83799 -96.17410 22016 ft 514 kts 104°
2026-05-08 02:49 32.83057 -96.13240 23146 ft 513 kts 103°
2026-05-08 02:50 32.82308 -96.09084 24115 ft 517 kts 104°
2026-05-08 02:50 32.81462 -96.04861 24534 ft 534 kts 107°
2026-05-08 02:50 32.80515 -96.00552 25219 ft 541 kts 108°
2026-05-08 02:50 32.79542 -95.96234 26323 ft 538 kts 108°
2026-05-08 02:51 32.78593 -95.91970 27073 ft 545 kts 109°
2026-05-08 02:51 32.77616 -95.87557 27536 ft 557 kts 109°
2026-05-08 02:51 32.76631 -95.83094 28411 ft 559 kts 109°
2026-05-08 02:51 32.75636 -95.78598 29069 ft 566 kts 110°
2026-05-08 02:52 32.74628 -95.74077 29990 ft 564 kts 110°
2026-05-08 02:52 32.73634 -95.69603 31161 ft 556 kts 110°
2026-05-08 02:52 32.72647 -95.65165 31881 ft 558 kts 110°
2026-05-08 02:52 32.71648 -95.60712 32604 ft 558 kts 111°
2026-05-08 02:53 32.70645 -95.56252 33374 ft 557 kts 111°
2026-05-08 02:53 32.69645 -95.51808 34075 ft 557 kts 111°
2026-05-08 02:53 32.68643 -95.47365 34629 ft 558 kts 111°
2026-05-08 02:53 32.67638 -95.42921 35111 ft 559 kts 111°
2026-05-08 02:54 32.66624 -95.38447 35616 ft 561 kts 111°
2026-05-08 02:54 32.65612 -95.33985 36109 ft 562 kts 111°
2026-05-08 02:54 32.64591 -95.29490 36583 ft 564 kts 111°
2026-05-08 02:54 32.63571 -95.25005 37063 ft 565 kts 112°
2026-05-08 02:55 32.62543 -95.20500 37557 ft 566 kts 112°
2026-05-08 02:55 32.60476 -95.11458 38576 ft 569 kts 112°
2026-05-08 02:55 32.59433 -95.06909 38856 ft 573 kts 112°
2026-05-08 02:56 32.58385 -95.02339 38978 ft 573 kts 112°
2026-05-08 02:56 32.56307 -94.93298 39045 ft 572 kts 112°
2026-05-08 02:57 32.54202 -94.84185 39063 ft 573 kts 112°
2026-05-08 02:57 32.52090 -94.75069 39033 ft 573 kts 112°
2026-05-08 02:58 32.49979 -94.65986 39055 ft 572 kts 112°
2026-05-08 02:58 32.47856 -94.56900 39061 ft 572 kts 112°
2026-05-08 02:59 32.45726 -94.47817 39061 ft 573 kts 112°
2026-05-08 02:59 32.43601 -94.38785 39063 ft 573 kts 112°
2026-05-08 03:00 32.41458 -94.29699 39063 ft 573 kts 112°
2026-05-08 03:00 32.39308 -94.20611 39062 ft 573 kts 112°
2026-05-08 03:01 32.37147 -94.11530 39063 ft 574 kts 112°
2026-05-08 03:01 32.35346 -94.03979 39076 ft 574 kts 112°
2026-05-08 03:02 32.33174 -93.94897 39072 ft 574 kts 112°
2026-05-08 03:02 32.30994 -93.85809 39068 ft 574 kts 112°
2026-05-08 03:03 32.28804 -93.76722 39035 ft 574 kts 112°
2026-05-08 03:03 32.26607 -93.67635 39062 ft 576 kts 112°
2026-05-08 03:04 32.24400 -93.58529 39064 ft 576 kts 112°
2026-05-08 03:04 32.22179 -93.49442 39060 ft 575 kts 114°
2026-05-08 03:05 32.19599 -93.40607 39063 ft 570 kts 118°
2026-05-08 03:05 32.16807 -93.31848 39058 ft 571 kts 117°
2026-05-08 03:06 32.14139 -93.22995 39056 ft 572 kts 116°
2026-05-08 03:06 32.11502 -93.14140 39058 ft 572 kts 116°
2026-05-08 03:07 32.08851 -93.05294 39059 ft 572 kts 116°
2026-05-08 03:07 32.06199 -92.96446 39059 ft 573 kts 116°
2026-05-08 03:08 32.03538 -92.87588 39049 ft 573 kts 116°
2026-05-08 03:08 32.00881 -92.78749 39058 ft 572 kts 116°
2026-05-08 03:09 31.97670 -92.70343 38994 ft 546 kts 137°
2026-05-08 03:09 31.95162 -92.67149 39015 ft 519 kts 150°
2026-05-08 03:09 31.92444 -92.64357 39069 ft 522 kts 150°
2026-05-08 03:10 31.87110 -92.58492 39061 ft 529 kts 148°
2026-05-08 03:10 31.81629 -92.52793 39054 ft 523 kts 152°
2026-05-08 03:11 31.76011 -92.47382 39035 ft 521 kts 153°
2026-05-08 03:11 31.70390 -92.42027 39044 ft 519 kts 153°
2026-05-08 03:12 31.64773 -92.36714 39039 ft 518 kts 153°
2026-05-08 03:12 31.61951 -92.34059 38581 ft 519 kts 153°
2026-05-08 03:12 31.59155 -92.31418 37907 ft 510 kts 153°
2026-05-08 03:12 31.56409 -92.28820 37257 ft 505 kts 153°
2026-05-08 03:13 31.53675 -92.26249 36639 ft 503 kts 153°
2026-05-08 03:13 31.50938 -92.23689 36056 ft 504 kts 153°
2026-05-08 03:13 31.48197 -92.21130 35433 ft 504 kts 152°
2026-05-08 03:13 31.45459 -92.18571 34874 ft 503 kts 152°
2026-05-08 03:14 31.42727 -92.16010 34312 ft 503 kts 151°
2026-05-08 03:14 31.39992 -92.13448 33735 ft 503 kts 151°
2026-05-08 03:14 31.37249 -92.10883 33105 ft 504 kts 151°
2026-05-08 03:14 31.34549 -92.08362 32505 ft 505 kts 151°
2026-05-08 03:15 31.31793 -92.05791 31915 ft 507 kts 150°
2026-05-08 03:15 31.29029 -92.03216 31330 ft 509 kts 150°
2026-05-08 03:15 31.26247 -92.00626 30749 ft 511 kts 150°
2026-05-08 03:15 31.23461 -91.98033 30192 ft 513 kts 150°
2026-05-08 03:16 31.20666 -91.95430 29512 ft 515 kts 149°
2026-05-08 03:16 31.17865 -91.92821 28855 ft 515 kts 149°
2026-05-08 03:16 31.15074 -91.90219 28212 ft 508 kts 149°
2026-05-08 03:16 31.12349 -91.87671 27601 ft 497 kts 149°
2026-05-08 03:17 31.09666 -91.85169 27026 ft 490 kts 149°
2026-05-08 03:17 31.07010 -91.82709 26460 ft 485 kts 149°
2026-05-08 03:17 31.04375 -91.80278 25908 ft 480 kts 149°
2026-05-08 03:17 31.01765 -91.77874 25380 ft 476 kts 149°
2026-05-08 03:18 30.99214 -91.75518 24855 ft 472 kts 149°
2026-05-08 03:18 30.96650 -91.73148 24354 ft 468 kts 149°
2026-05-08 03:18 30.94107 -91.70797 23838 ft 465 kts 149°
2026-05-08 03:18 30.91588 -91.68472 23306 ft 459 kts 149°
2026-05-08 03:19 30.89098 -91.66173 22741 ft 454 kts 149°
2026-05-08 03:19 30.86631 -91.63900 22188 ft 450 kts 149°
2026-05-08 03:19 30.84181 -91.61647 21659 ft 447 kts 149°
2026-05-08 03:19 30.81743 -91.59406 21127 ft 444 kts 149°
2026-05-08 03:20 30.79326 -91.57186 20621 ft 441 kts 149°
2026-05-08 03:20 30.76931 -91.54984 20118 ft 438 kts 149°
2026-05-08 03:20 30.74539 -91.52787 19635 ft 436 kts 149°
2026-05-08 03:20 30.72166 -91.50610 19152 ft 434 kts 149°
2026-05-08 03:21 30.69803 -91.48445 18687 ft 431 kts 149°
2026-05-08 03:21 30.67448 -91.46290 18197 ft 429 kts 149°
2026-05-08 03:21 30.65109 -91.44152 17676 ft 426 kts 149°
2026-05-08 03:21 30.62787 -91.42032 17165 ft 421 kts 148°
2026-05-08 03:22 30.60501 -91.39945 16664 ft 416 kts 148°
2026-05-08 03:22 30.58272 -91.37906 16184 ft 411 kts 148°
2026-05-08 03:22 30.56015 -91.35841 15708 ft 405 kts 147°
2026-05-08 03:22 30.53840 -91.33859 15255 ft 400 kts 147°
2026-05-08 03:23 30.51662 -91.31880 14814 ft 395 kts 147°
2026-05-08 03:23 30.49508 -91.29918 14384 ft 391 kts 146°
2026-05-08 03:23 30.47366 -91.27947 13954 ft 386 kts 146°
2026-05-08 03:23 30.45300 -91.26046 13502 ft 382 kts 146°
2026-05-08 03:24 30.43219 -91.24144 13041 ft 379 kts 146°
2026-05-08 03:24 30.41156 -91.22252 12591 ft 377 kts 145°
2026-05-08 03:24 30.39102 -91.20359 12125 ft 376 kts 145°
2026-05-08 03:24 30.37053 -91.18470 11690 ft 375 kts 144°
2026-05-08 03:25 30.35025 -91.16592 11335 ft 371 kts 144°
2026-05-08 03:25 30.33004 -91.14716 11165 ft 371 kts 144°
2026-05-08 03:25 30.30992 -91.12849 11062 ft 371 kts 144°
2026-05-08 03:25 30.28987 -91.10993 11024 ft 363 kts 144°
2026-05-08 03:26 30.27043 -91.09184 11011 ft 356 kts 144°
2026-05-08 03:26 30.25118 -91.07394 11006 ft 354 kts 144°
2026-05-08 03:26 30.23195 -91.05604 11015 ft 354 kts 144°
2026-05-08 03:26 30.21302 -91.03851 11013 ft 350 kts 144°
2026-05-08 03:27 30.19485 -91.02167 11008 ft 322 kts 144°
2026-05-08 03:27 30.17771 -91.00571 11018 ft 314 kts 144°
2026-05-08 03:27 30.16068 -90.98999 11014 ft 313 kts 144°
2026-05-08 03:27 30.14398 -90.97381 11002 ft 315 kts 137°
2026-05-08 03:28 30.13170 -90.95285 10972 ft 319 kts 114°
2026-05-08 03:28 30.12577 -90.92820 10990 ft 321 kts 104°
2026-05-08 03:28 30.12003 -90.90309 10668 ft 323 kts 109°
2026-05-08 03:28 30.11244 -90.87877 10261 ft 319 kts 112°
2026-05-08 03:29 30.10479 -90.85489 9844 ft 314 kts 110°
2026-05-08 03:29 30.09844 -90.83100 9382 ft 309 kts 105°
2026-05-08 03:29 30.09338 -90.80709 8935 ft 305 kts 103°
2026-05-08 03:29 30.08895 -90.78328 8495 ft 302 kts 102°
2026-05-08 03:30 30.08041 -90.73622 7615 ft 298 kts 102°
2026-05-08 03:30 30.07194 -90.68974 6781 ft 293 kts 102°
2026-05-08 03:31 30.06379 -90.64425 5918 ft 289 kts 102°
2026-05-08 03:31 30.05578 -90.59919 5042 ft 284 kts 102°
2026-05-08 03:32 30.05201 -90.57692 4599 ft 282 kts 98°
2026-05-08 03:32 30.05022 -90.55457 4303 ft 278 kts 93°
2026-05-08 03:32 30.04967 -90.53217 4149 ft 279 kts 91°
2026-05-08 03:32 30.05059 -90.50993 3912 ft 278 kts 84°
2026-05-08 03:33 30.04957 -90.48789 3484 ft 273 kts 108°
2026-05-08 03:33 30.04201 -90.46855 3118 ft 257 kts 115°
2026-05-08 03:33 30.03669 -90.44928 2754 ft 248 kts 103°
2026-05-08 03:33 30.03317 -90.43031 2463 ft 233 kts 104°
2026-05-08 03:34 30.02910 -90.41335 2108 ft 214 kts 107°
2026-05-08 03:34 30.02508 -90.39756 1881 ft 196 kts 105°
2026-05-08 03:34 30.02150 -90.38287 1666 ft 180 kts 105°
2026-05-08 03:34 30.01820 -90.36939 1402 ft 167 kts 105°
2026-05-08 03:35 30.01524 -90.35731 1227 ft 150 kts 103°
2026-05-08 03:35 30.01252 -90.34612 1063 ft 144 kts 103°
2026-05-08 03:35 30.00977 -90.33496 907 ft 144 kts 103°
2026-05-08 03:35 30.00680 -90.32404 750 ft 143 kts 104°
2026-05-08 03:36 30.00414 -90.31298 580 ft 144 kts 101°
2026-05-08 03:36 30.00145 -90.30190 393 ft 142 kts 103°
2026-05-08 03:36 29.99889 -90.29113 221 ft 137 kts 99°
2026-05-08 03:36 29.99638 -90.28067 51 ft 134 kts 101°
2026-05-08 03:37 29.99408 -90.27100 13 ft 107 kts 105°
2026-05-08 03:37 29.99244 -90.26439 15 ft 63 kts 106°
2026-05-08 03:37 29.99161 -90.26094 10 ft 41 kts 105°
2026-05-08 03:37 29.99098 -90.25825 12 ft 31 kts 103°
2026-05-08 03:38 29.99113 -90.25642 12 ft 19 kts 24°
2026-05-08 03:38 29.99211 -90.25697 9 ft 19 kts 287°
2026-05-08 03:38 29.99279 -90.25828 9 ft 17 kts 330°
2026-05-08 03:38 29.99350 -90.25922 9 ft 17 kts 288°
2026-05-08 03:39 29.99374 -90.26038 9 ft 14 kts 284°
2026-05-08 03:39 29.99403 -90.26153 11 ft 14 kts 286°
2026-05-08 03:39 29.99434 -90.26278 13 ft 19 kts 285°
2026-05-08 03:39 29.99501 -90.26380 14 ft 15 kts 353°
2026-05-08 03:40 29.99608 -90.26352 15 ft 16 kts 12°
2026-05-08 03:40 29.99712 -90.26329 15 ft 12 kts 15°
2026-05-08 03:40 29.99741 -90.26254 15 ft 12 kts 97°
2026-05-08 03:40 29.99734 -90.26235 15 ft 0 kts 121°
2026-05-08 03:43 29.99730 -90.26232 15 ft 2 kts 143°
2026-05-08 03:43 29.99710 -90.26242 15 ft 6 kts 227°
2026-05-08 03:43 29.99668 -90.26306 14 ft 13 kts 227°
2026-05-08 03:43 29.99580 -90.26365 15 ft 15 kts 200°
2026-05-08 03:44 29.99494 -90.26422 15 ft 12 kts 225°
2026-05-08 03:44 29.99443 -90.26418 13 ft 7 kts 79°
2026-05-08 03:44 29.99488 -90.26389 14 ft 9 kts
2026-05-08 03:44 29.99519 -90.26381 14 ft 0 kts 15°
2026-05-08 03:53 29.99568 -90.26366 15 ft 16 kts 16°
2026-05-08 03:53 29.99646 -90.26336 16 ft 11 kts 21°
2026-05-08 03:53 29.99665 -90.26287 14 ft 7 kts 98°
2026-05-08 03:54 29.99646 -90.26248 15 ft 7 kts 165°
2026-05-08 03:54 29.99632 -90.26247 13 ft 7 kts 184°